Truth Or Consequences, NM

8:02 PM MST on November 11, 2019 (GMT -0700)
Truth Or Consequences Municipal

Weather History for KTCS - October, 2019

Change the Weather History Date:

Sunday, October 20, 2019

  Actual Average Record
Temperature  
Mean Temperature 62 °F -  
Max Temperature 79 °F 73 °F 88 °F (2007)
Min Temperature 46 °F 46 °F 35 °F (1999)
Degree Days  
Heating Degree Days 2    
Month to date heating degree days 29  
Since 1 July heating degree days 29  
Cooling Degree Days 0    
Month to date cooling degree days 50  
Year to date cooling degree days 2184  
Growing Degree Days 12 (Base 50)    
Moisture  
Dew Point 17 °F    
Average Humidity 22    
Maximum Humidity 50    
Minimum Humidity 6    
Precipitation  
Precipitation 0.00 in - 0.37 in (1998)
Month to date precipitation 0.54  
Year to date precipitation 5.58  
Sea Level Pressure  
Sea Level Pressure 29.72 in    
Wind  
Wind Speed 6 mph ()    
Max Wind Speed 22 mph    
Max Gust Speed 38 mph    
Visibility 10.0 miles    
Events      
T = Trace of Precipitation, MM = Missing Value Source: Averaged Metar Reports

Daily Weather History Graph

Daily Weather History Graph

Search for Another Location

Airport or City:

Astronomy

Oct. 20, 2019 Rise Set
Actual Time 7:17 AM MDT 6:29 PM MDT
Civil Twilight 6:52 AM MDT 6:55 PM MDT
Nautical Twilight 6:23 AM MDT 7:23 PM MDT
Astronomical Twilight 5:54 AM MDT 7:52 PM MDT
Moon 11:53 PM MDT (10/20) 1:35 PM MDT (10/20)
Length of Visible Light 12h 02m
Length of Day
11h 12m
Waning Gibbous, 58% of the Moon is Illuminated
Oct 20
Waning Gibbous
Oct 21
Last Quarter
Oct 27
New
Nov 4
First Quarter
Nov 12
Full

Hourly Weather History & Observations

Time (MDT) Temp. Dew Point Humidity Pressure Visibility Wind Dir Wind Speed Gust Speed Precip Events Conditions
12:53 AM 55.9 °F 24.1 °F 29% 29.72 in 10.0 mi West 8.1 mph - N/A   Clear
1:53 AM 53.1 °F 23.0 °F 31% 29.71 in 10.0 mi NNW 3.5 mph - N/A   Clear
2:53 AM 53.1 °F 24.1 °F 32% 29.69 in 10.0 mi Variable 3.5 mph - N/A   Clear
3:53 AM 52.0 °F 24.1 °F 34% 29.70 in 10.0 mi WNW 4.6 mph - N/A   Clear
4:53 AM 51.1 °F 24.1 °F 35% 29.68 in 10.0 mi Calm Calm - N/A   Clear
5:53 AM 51.1 °F 30.0 °F 44% 29.70 in 10.0 mi Calm Calm - N/A   Clear
6:53 AM 48.9 °F 30.9 °F 50% 29.71 in 10.0 mi Calm Calm - N/A   Clear
7:53 AM 50.0 °F 32.0 °F 50% 29.72 in 10.0 mi Calm Calm - N/A   Clear
8:53 AM 55.9 °F 30.9 °F 39% 29.75 in 10.0 mi Calm Calm - N/A   Clear
9:53 AM 61.0 °F 30.9 °F 32% 29.74 in 10.0 mi SSE 4.6 mph - N/A   Clear
10:53 AM 66.9 °F 25.0 °F 21% 29.72 in 10.0 mi SE 5.8 mph - N/A   Clear
11:53 AM 72.0 °F 19.0 °F 13% 29.69 in 10.0 mi South 9.2 mph - N/A   Clear
12:53 PM 75.9 °F 12.0 °F 9% 29.67 in 10.0 mi NNW 11.5 mph 21.9 mph N/A   Clear
1:53 PM 77.0 °F 10.9 °F 8% 29.66 in 10.0 mi NNW 12.7 mph 23.0 mph N/A   Clear
2:53 PM 77.0 °F 10.9 °F 8% 29.64 in 10.0 mi NNW 8.1 mph 23.0 mph N/A   Clear
3:53 PM 75.9 °F 9.0 °F 8% 29.65 in 10.0 mi NW 21.9 mph 31.1 mph N/A   Clear
4:53 PM 75.0 °F 3.0 °F 6% 29.67 in 10.0 mi NW 20.7 mph 32.2 mph N/A   Clear
5:53 PM 72.0 °F 1.0 °F 6% 29.69 in 10.0 mi NW 20.7 mph 35.7 mph N/A   Clear
6:53 PM 68.0 °F 3.0 °F 8% 29.74 in 10.0 mi NW 17.3 mph 28.8 mph N/A   Clear
7:53 PM 64.9 °F 3.9 °F 9% 29.76 in 10.0 mi NNW 12.7 mph - N/A   Clear
8:53 PM 63.0 °F 7.0 °F 11% 29.78 in 10.0 mi North 10.4 mph 19.6 mph N/A   Clear
9:53 PM 62.1 °F 6.1 °F 11% 29.80 in 10.0 mi NNE 9.2 mph 21.9 mph N/A   Clear
10:53 PM 54.0 °F 8.1 °F 16% 29.85 in 10.0 mi North 10.4 mph - N/A   Clear
11:53 PM 51.1 °F 5.0 °F 15% 29.88 in 10.0 mi North 10.4 mph - N/A   Clear